{"data":{"norad_id":67109,"epoch":"2026-05-25T03:57:38.841696Z","epoch_age_seconds":71345,"freshness":"FRESH","line1":"1 67109U 25299H   26145.16503289  .00016437  00000+0  60516-3 0  9993","line2":"2 67109  43.0005  96.9704 0000718 245.8588 114.2189 15.27598767 25907","mean_motion":15.27598767,"eccentricity":7.18e-5,"inclination_deg":43.0005,"raan_deg":96.9704,"arg_perigee_deg":245.8588,"mean_anomaly_deg":114.2189,"bstar":0.00060516,"rev_number":2590,"period_min":94.265590618927,"perigee_km":482.50027233865,"apogee_km":483.4855305925,"semimajor_km":6861.1299014656,"source":"CELESTRAK","updated_at":"2026-05-25T13:38:21.474017Z"}}